Retour au catalogue

ARIANE 5 R/B

ActifHEO
NORAD 40942·ROCKET BODY·🇫🇷 France

Lancé Sep 30, 2015 depuis Guiana Space Centre

Loading…

Prochains Passages (prochaines 24 heures)

TLE

FraisSource: Space-Track

Époque: Sep 14, 2026, 16:22 UTC

1 40942U 15054C   26257.68240404  .00017942  00000-0  11370-2 0  9991
2 40942   6.5362  26.1172 6811006   0.7909 359.7801  2.92805616101890

Suivez ARIANE 5 R/B en temps réel avec AllMySat

Download on the App Store